Weather History for Denver, CO

Change the Weather History Date:

Sunday, September 15, 2013

  Actual Average Record
Temperature  
Mean Temperature 58 °F 64 °F  
Max Temperature 61 °F 79 °F 92 °F (2000)
Min Temperature 54 °F 49 °F 32 °F (1912)
Degree Days  
Heating Degree Days 7 4  
Month to date heating degree days 10 33  
Since 1 July heating degree days 10 49  
Cooling Degree Days 0 2  
Month to date cooling degree days 115 56  
Year to date cooling degree days 981 744  
Growing Degree Days 7 (Base 50)    
Moisture  
Dew Point 55 °F    
Average Humidity 92    
Maximum Humidity 100    
Minimum Humidity 84    
Precipitation  
Precipitation 0.38 in 0.03 in 0.89 in (1958)
Month to date precipitation 4.65 0.50  
Year to date precipitation 15.40 11.86  
Snow  
Snow 0.00 in - - ()
Month to date snowfall 0  
Since 1 July snowfall 0  
Since 1 September snowfall 0  
Snow Depth 0.00 in    
Sea Level Pressure  
Sea Level Pressure 30.16 in    
Wind  
Wind Speed 9 mph (NE)    
Max Wind Speed 16 mph    
Max Gust Speed 25 mph    
Visibility 6 miles    
Events Rain    
T = Trace of Precipitation, MM = Missing Value Source: NWS Daily Summary

Daily Weather History Graph

Daily Weather History Graph

Search for Another Location

Airport:

Trip Planner

Search our weather history database for the weather conditions in past years. The results will help you decide how hot, cold, wet, or windy it might be!

Date:

Astronomy

Sep. 15, 2013 Rise Set
Actual Time 6:39 AM MDT 7:06 PM MDT
Civil Twilight 6:12 AM MDT 7:33 PM MDT
Nautical Twilight 5:40 AM MDT 8:05 PM MDT
Astronomical Twilight 5:08 AM MDT 8:38 PM MDT
Moon 4:35 PM MDT (9/15) 2:21 AM MDT (9/15)
Length of Visible Light 13h 21m
Length of Day
12h 26m
Waxing Gibbous, 82% of the Moon is Illuminated
Sep 15
Waxing Gibbous
Sep 19
Full
Sep 26
Last Quarter
Oct 4
New
Oct 11
First Quarter

Hourly Weather History & Observations

Time (MDT) Temp. Dew Point Humidity Pressure Visibility Wind Dir Wind Speed Gust Speed Precip Events Conditions
12:53 AM 60.1 °F 55.9 °F 86% 29.88 in 10.0 mi NW 9.2 mph - N/A   Mostly Cloudy
1:53 AM 59.0 °F 57.0 °F 93% 29.90 in 10.0 mi NNW 8.1 mph - N/A   Mostly Cloudy
2:53 AM 59.0 °F 55.0 °F 87% 29.89 in 10.0 mi North 6.9 mph - N/A   Mostly Cloudy
3:53 AM 57.9 °F 55.0 °F 90% 29.93 in 10.0 mi NNW 4.6 mph - N/A   Mostly Cloudy
4:34 AM 59.0 °F 55.4 °F 88% 30.13 in 10.0 mi NNW 5.8 mph - N/A   Mostly Cloudy
4:39 AM 59.0 °F 55.4 °F 88% 30.13 in 10.0 mi NNW 5.8 mph - N/A   Mostly Cloudy
4:53 AM 59.0 °F 55.0 °F 87% 29.98 in 10.0 mi NNW 5.8 mph - N/A   Mostly Cloudy
5:22 AM 57.2 °F 55.4 °F 94% 30.14 in 10.0 mi NNW 5.8 mph - N/A   Mostly Cloudy
5:53 AM 59.0 °F 55.9 °F 90% 29.99 in 10.0 mi NNW 4.6 mph - N/A   Mostly Cloudy
6:22 AM 59.0 °F 55.4 °F 88% 30.16 in 10.0 mi NNW 4.6 mph - N/A   Overcast
6:53 AM 57.9 °F 55.9 °F 93% 30.01 in 10.0 mi North 4.6 mph - N/A   Overcast
7:13 AM 59.0 °F 55.4 °F 88% 30.18 in 8.0 mi North 3.5 mph - N/A   Overcast
7:53 AM 59.0 °F 57.0 °F 93% 30.03 in 9.0 mi NNE 5.8 mph - N/A   Overcast
8:22 AM 60.8 °F 55.4 °F 82% 30.19 in 10.0 mi NE 4.6 mph - N/A   Overcast
8:53 AM 60.1 °F 55.9 °F 86% 30.04 in 10.0 mi NE 5.8 mph - N/A   Overcast
9:08 AM 60.8 °F 55.4 °F 82% 30.21 in 10.0 mi ENE 5.8 mph - N/A   Overcast
9:13 AM 60.8 °F 55.4 °F 82% 30.21 in 10.0 mi NE 5.8 mph - N/A   Overcast
9:42 AM 60.8 °F 55.4 °F 82% 30.22 in 10.0 mi NE 5.8 mph - N/A   Overcast
9:53 AM 61.0 °F 55.9 °F 83% 30.06 in 10.0 mi NE 6.9 mph - N/A   Overcast
10:06 AM 60.8 °F 55.4 °F 82% 30.23 in 10.0 mi NE 6.9 mph - N/A   Overcast
10:24 AM 60.8 °F 55.4 °F 82% 30.23 in 10.0 mi ENE 4.6 mph - N/A   Overcast
10:41 AM 59.0 °F 55.4 °F 88% 30.24 in 10.0 mi ENE 11.5 mph - N/A   Overcast
10:53 AM 57.9 °F 55.9 °F 93% 30.08 in 8.0 mi ENE 12.7 mph 24.2 mph 0.00 in Rain Light Rain
11:01 AM 57.2 °F 55.4 °F 94% 30.24 in 2.5 mi ENE 12.7 mph - 0.01 in Rain Light Rain
11:16 AM 57.2 °F 55.4 °F 94% 30.24 in 2.5 mi ENE 13.8 mph 25.3 mph 0.01 in Rain Light Rain
11:24 AM 57.2 °F 55.4 °F 94% 30.24 in 2.5 mi ENE 12.7 mph - 0.01 in Rain Light Rain
11:28 AM 57.2 °F 55.4 °F 94% 30.24 in 2.5 mi ENE 13.8 mph - 0.02 in Rain Light Rain
11:45 AM 57.2 °F 55.4 °F 94% 30.24 in 1.8 mi ENE 13.8 mph 20.7 mph 0.07 in Rain Heavy Rain
11:53 AM 57.9 °F 55.9 °F 93% 30.09 in 2.5 mi NE 15.0 mph 23.0 mph 0.09 in Rain Rain
12:01 PM 57.2 °F 55.4 °F 94% 30.25 in 2.5 mi ENE 12.7 mph 23.0 mph 0.00 in Rain Rain
12:25 PM 57.2 °F 55.4 °F 94% 30.25 in 2.5 mi ENE 12.7 mph - 0.03 in Rain Rain
12:53 PM 57.0 °F 55.9 °F 96% 30.11 in 2.0 mi ENE 13.8 mph 20.7 mph 0.08 in Rain Light Rain
1:01 PM 57.2 °F 55.4 °F 94% 30.26 in 2.0 mi ENE 13.8 mph - 0.00 in Rain Light Rain
1:41 PM 57.2 °F 55.4 °F 94% 30.28 in 2.0 mi NE 11.5 mph 20.7 mph 0.03 in Rain Rain
1:53 PM 57.0 °F 55.9 °F 96% 30.13 in 2.0 mi NE 12.7 mph - 0.05 in Rain Light Rain
1:55 PM 57.2 °F 55.4 °F 94% 30.28 in 2.0 mi NE 13.8 mph - 0.00 in Rain Light Rain
1:57 PM 57.2 °F 55.4 °F 94% 30.28 in 1.2 mi NE 12.7 mph - 0.00 in Rain Light Rain
2:50 PM 57.2 °F 55.4 °F 94% 30.27 in 2.5 mi NE 15.0 mph 21.9 mph 0.11 in Rain Rain
2:53 PM 57.0 °F 55.0 °F 93% 30.13 in 2.5 mi ENE 13.8 mph - 0.13 in Rain Rain
3:14 PM 57.2 °F 55.4 °F 94% 30.27 in 2.5 mi ENE 13.8 mph - 0.02 in Rain Light Rain
3:53 PM 55.9 °F 54.0 °F 93% 30.14 in 10.0 mi ENE 13.8 mph 23.0 mph 0.03 in Rain Light Rain
4:12 PM 57.2 °F 55.4 °F 94% 30.27 in 10.0 mi ENE 13.8 mph 21.9 mph 0.00 in Rain Light Rain
4:19 PM 57.2 °F 55.4 °F 94% 30.27 in 10.0 mi NE 12.7 mph - 0.00 in Rain Light Rain
4:53 PM 55.9 °F 54.0 °F 93% 30.14 in 10.0 mi ENE 13.8 mph - 0.00 in Rain Light Rain
5:53 PM 55.9 °F 54.0 °F 93% 30.15 in 10.0 mi ENE 10.4 mph - 0.00 in   Overcast
6:53 PM 55.0 °F 53.1 °F 93% 30.16 in 10.0 mi ENE 8.1 mph - N/A   Overcast
7:29 PM 55.4 °F 53.6 °F 94% 30.30 in 10.0 mi East 8.1 mph - N/A   Overcast
7:50 PM 55.4 °F 53.6 °F 94% 30.31 in 10.0 mi East 6.9 mph - N/A   Overcast
7:53 PM 55.0 °F 53.1 °F 93% 30.17 in 10.0 mi East 6.9 mph - N/A   Overcast
8:00 PM 55.4 °F 53.6 °F 94% 30.31 in 10.0 mi East 6.9 mph - N/A   Overcast
8:08 PM 55.4 °F 53.6 °F 94% 30.31 in 10.0 mi East 6.9 mph - N/A   Overcast
8:40 PM 53.6 °F 53.6 °F 100% 30.32 in 1.8 mi East 9.2 mph - 0.00 in Rain Light Rain
8:53 PM 54.0 °F 53.1 °F 97% 30.19 in 1.0 mi East 5.8 mph - 0.00 in   Overcast
9:28 PM 53.6 °F 53.6 °F 100% 30.32 in 1.0 mi East 6.9 mph - N/A   Overcast
9:50 PM 53.6 °F 53.6 °F 100% 30.32 in 1.0 mi ESE 6.9 mph - N/A   Overcast
9:53 PM 54.0 °F 53.1 °F 97% 30.18 in 1.0 mi East 6.9 mph - N/A   Overcast
10:53 PM 54.0 °F 52.0 °F 93% 30.18 in 1.0 mi ESE 6.9 mph - 0.00 in   Light Drizzle
11:53 PM 54.0 °F 53.1 °F 97% 30.17 in 1.0 mi ESE 10.4 mph - 0.00 in   Overcast